This demonstration page uses our WeatherBlox Daily Observations layout. Learn more.

Left ArrowRight Arrow

Hourly Observations for June 17, 2017

Temp ( °F °C ) Dew Point ( °F °C ) Humidity (%) Winds ( mph kmh ) Pressure ( in mb ) Visibility ( mi km ) Precip ( " mm )
12:52 am 00:52 Clear 77 25 72 22.2 85 85 SSE 12 19 29.71 1006 10 16 0.00 0.00
1:52 am 01:52 Clear 76 24.4 73 22.8 91 91 S 9 15 29.71 1006 10 16 0.00 0.00
2:52 am 02:52 Clear 76 24.4 73 22.8 91 91 S 6 9 29.73 1007 10 16 0.00 0.00
3:52 am 03:52 Partly Cloudy with Light Rain 74 23.3 65 18.3 74 74 N 41 67 29.80 1009 10 16 0.00 0.03
3:59 am 03:59 Mostly Cloudy with Nearby Thunderstorms 71 21.7 64 17.8 79 79 N 25 41 29.83 1010 10 16 0.00 0.03
4:41 am 04:41 Cloudy with Strong Thunderstorms 67 19.4 65 18.3 93 93 WNW 16 26 29.91 1013 3 5 0.20 5.08
4:43 am 04:43 Cloudy with Strong Thunderstorms 67 19.4 65 18.3 93 93 WNW 15 24 29.91 1013 2 3 0.24 6.10
4:49 am 04:49 Cloudy with Strong Thunderstorms 66 19 64 18 94 94 WNW 12 19 29.91 1013 1 2 0.49 12.45
4:52 am 04:52 Cloudy with Strong Thunderstorms 66 18.9 65 18.3 96 96 W 6 9 29.88 1012 1 2 0.55 13.97
4:59 am 04:59 Cloudy with Strong Thunderstorms 66 18.9 66 18.9 100 100 Calm 29.88 1012 2 3 0.08 2.03
5:06 am 05:06 Cloudy with Thunderstorms 66 18.9 66 18.9 100 100 Calm 29.85 1011 3 5 0.12 3.05
5:33 am 05:33 Cloudy with Nearby Thunderstorms 67 19.4 66 18.9 97 97 ESE 15 24 29.80 1009 10 16 0.15 3.81
5:41 am 05:41 Cloudy with Rain 67 19.4 66 18.9 97 97 ESE 16 26 29.77 1008 9 14 0.16 4.06
5:52 am 05:52 Windy with Storms Likely 67 19.4 66 18.9 97 97 SE 20 31 29.74 1007 10 16 0.18 4.57
6:08 am 06:08 Mostly Cloudy with Light Rain 67 19.4 66 18.9 97 97 SSE 16 26 29.74 1007 10 16 0.01 0.25
6:18 am 06:18 Mostly Cloudy with Nearby Thunderstorms 67 19.4 66 18.9 97 97 SSE 15 24 29.77 1008 10 16 0.02 0.51
6:26 am 06:26 Partly Cloudy with Thunderstorms 67 19.4 66 18.9 97 97 S 16 26 29.74 1007 10 16 0.03 0.76
6:41 am 06:41 Partly Cloudy with Light Rain 67 19.4 66 18.9 97 97 S 21 33 29.71 1006 10 16 0.04 1.02
6:52 am 06:52 Partly Cloudy with Light Rain 67 19.4 66 18.9 97 97 SSE 20 31 29.67 1005 10 16 0.04 1.02
7:52 am 07:52 Sunny 69 20.6 65 18.3 87 87 S 9 15 29.68 1005 10 16 0.00 0.03
8:52 am 08:52 Sunny 68 20 65 18.3 90 90 ENE 7 11 29.70 1006 10 16 0.00 0.00
9:52 am 09:52 Sunny 69 20.6 66 18.9 90 90 ENE 6 9 29.70 1006 10 16 0.00 0.00
10:52 am 10:52 Sunny 70 21.1 67 19.4 90 90 SE 10 17 29.70 1006 10 16 0.00 0.00
11:52 am 11:52 Sunny 74 23.3 67 19.4 79 79 SSE 8 13 29.68 1005 10 16 0.00 0.00
12:52 pm 12:52 Sunny 79 26.1 68 20 69 69 S 12 19 29.67 1005 10 16 0.00 0.00
1:52 pm 13:52 Sunny 82 27.8 71 21.7 69 69 S 10 17 29.68 1005 10 16 0.00 0.00
2:52 pm 14:52 Sunny 84 28.9 71 21.7 65 65 S 15 24 29.68 1005 10 16 0.00 0.00
3:52 pm 15:52 Sunny 83 28.3 72 22.2 70 70 S 14 22 29.67 1005 10 16 0.00 0.00
4:52 pm 16:52 Sunny 84 28.9 72 22.2 67 67 SSE 10 17 29.66 1005 10 16 0.00 0.00
5:52 pm 17:52 Sunny 83 28.3 72 22.2 70 70 SSE 13 20 29.65 1004 10 16 0.00 0.00
6:52 pm 18:52 Sunny 81 27.2 72 22.2 74 74 SSE 12 19 29.65 1004 10 16 0.00 0.00
7:52 pm 19:52 Sunny 81 27.2 73 22.8 77 77 SSE 12 19 29.65 1004 10 16 0.00 0.00
8:52 pm 20:52 Clear 79 26.1 73 22.8 82 82 SSE 9 15 29.65 1004 10 16 0.00 0.00
9:52 pm 21:52 Clear 78 25.6 74 23.3 87 87 S 7 11 29.65 1004 10 16 0.00 0.00
10:52 pm 22:52 Clear 77 25 74 23.3 90 90 S 8 13 29.67 1005 10 16 0.00 0.00
11:52 pm 23:52 Mostly Clear 76 24.4 74 23.3 94 94 NW 7 11 29.76 1008 9 14 0.00 0.00

Powered by AerisWeather